Regional Weather Roundup
Issued by NWS Austin/San Antonio, TX

Home | Current Version | Previous Version | Text Only | Print | Product List | Glossary On
Versions: 1 2 3 4 5 6 7 8 9 10 11 12 13 14 15 16 17 18 19 20 21 22 23 24 25 26 27 28 29 30 31 32 33 34 35 36 37 38 39 40 41 42 43 44 45 46 47 48 49 50
000
ASUS44 KEWX 171610
RWREWX
SOUTH TEXAS REGIONAL WEATHER ROUNDUP
NATIONAL WEATHER SERVICE AUSTIN/SAN ANTONIO TX
1000 AM CST SUN FEB 17 2019

NOTE: "FAIR" INDICATED FEW OR NO CLOUDS BELOW 12,000 FEET WITH NO
SIGNIFICANT WEATHER AND/OR OBSTRUCTIONS TO VISIBILITY.

* - THESE STATIONS ARE NOT NWS OR FAA STATIONS...AND ARE NOT SUBJECT
    TO NWS AND FAA QUALITY CONTROL.

TXZ171-172-183>190-171700-
TEXAS HILL COUNTRY AND EDWARDS PLATEAU

CITY           SKY/WX    TMP DP  RH WIND       PRES   REMARKS
JUNCTION       SUNNY     57  25  29 N14       29.93R
*LLANO         SUNNY     55  34  44 N10       29.96R
BURNET         PTSUNNY   51  36  56 N12       29.93R
*HORSESHOE BAY CLOUDY    54  37  52 NW7       29.91S
*KERRVILLE     SUNNY     56  32  38 N10       29.89S
*FREDERICKSBRG SUNNY     57  27  32 N14       29.90S
*ROCKSPRINGS   SUNNY     55  18  22 N12G18    29.95R
*BOERNE STAGE  CLOUDY    57  32  38 N12G21    29.88R
*CASTROVILLE   PTSUNNY   64  32  30 NE12      29.87R
HONDO          CLOUDY    65  34  31 N17       29.86R
*UVALDE        SUNNY     64  33  30 N10       29.88S
DEL RIO        SUNNY     62  28  27 NW14      29.91R
LAUGHLIN AFB   SUNNY     62  27  26 NW13      29.90R
CARRIZO SPRGS  SUNNY     68  43  40 N9G16     29.87R
*FAITH RANCH   SUNNY     70  50  49 N12G20    29.87R
$$

TXZ173-191>194-202-209-217>225-228-171700-
CENTRAL AND SOUTH CENTRAL TEXAS

CITY           SKY/WX    TMP DP  RH WIND       PRES   REMARKS
GEORGETOWN     CLOUDY    50  42  74 N16       29.94R WCI  44
AUSTIN/BERGSTM CLOUDY    58  45  62 N15       29.89R
AUSTIN/MABRY   CLOUDY    58  40  51 VRB6      29.90R
*AUSTIN/EXEC   CLOUDY    52  45  76 N18G26    29.91R
*LAGO VISTA    CLOUDY    56  31  38 N10G17    29.91R
SAN MARCOS     SUNNY     63  40  42 N21       29.87R
NEW BRAUNFELS  SUNNY     65  38  36 N20G26    29.84R
RANDOLPH AFB   CLOUDY    63  35  35 N14       29.84R
PT SAN ANTONIO PTSUNNY   63  35  36 N17       29.84R
SAN ANTONIO    PTSUNNY   62  34  35 N15       29.85R
STINSON FIELD  CLOUDY    66  32  28 N13G23    29.83R
*LA GRANGE     CLOUDY    55  48  79 N15       29.84R
*GIDDINGS      CLOUDY    53  47  79 N15G26    29.86R
*GONZALES      CLOUDY    59  47  63 N14G22    29.83R
$$

TXZ163>164-176>182-195>201-210>213-226-227-235-171700-
SOUTHEAST TEXAS

CITY           SKY/WX    TMP DP  RH WIND       PRES   REMARKS
COLLEGE STN    CLOUDY    52  48  86 N21       29.87R
*BRYAN         CLOUDY    51  48  89 N17G23    29.90R
*CALDWELL      CLOUDY    51  46  82 N14G21    29.89R
*CROCKETT        N/A     50  46  87 N12       29.91R WCI  46
*BRENHAM       CLOUDY    54  53  95 N20G25    29.85S
HUNTSVILLE     CLOUDY    50  49  96 N9G20     29.85R WCI  46
CONROE         CLOUDY    55  54  96 N10       29.84R
HOUSTON BUSH   CLOUDY    61  59  93 N12       29.81R
HOUSTON HOBBY  CLOUDY    63  61  93 N9        29.79R
*HOUSTON SW AP DRIZZLE   61  60  97 N7        29.80R
PEARLAND       LGT RAIN  64  64 100 N8        29.80R FOG
HOUSTON HOOKS  CLOUDY    58  56  93 N14       29.81R
ELLINGTON FLD  CLOUDY    63  61  94 NW9       29.81R FOG
SUGAR LAND     CLOUDY    62  58  86 N14       29.79R
*HOUSTON EXEC  CLOUDY    57  57 100 N14       29.82R FOG
*CLEVELAND MUN CLOUDY    57  57 100 N8        29.83R FOG
*WHARTON       CLOUDY    57  57  99 N8        29.81R
*COLUMBUS      CLOUDY    56  51  84 N12       29.83R
*EAGLE LAKE    CLOUDY    55  52  90 N16G23    29.82
$$

TXZ214>216-236>238-171700-
THE UPPER TEXAS COAST

CITY           SKY/WX    TMP DP  RH WIND       PRES   REMARKS
*ORANGE        CLOUDY    72  71  97 W6        29.80R FOG
PORT ARTHUR    CLOUDY    75  68  78 SW7       29.77R
GALVESTON      CLOUDY    68  64  87 N13       29.77R FOG
ANGLETON       CLOUDY    63  62  97 N12       29.78R
*BAY CITY      CLOUDY    62  62  99 N12G17    29.79R FOG
PALACIOS       LGT RAIN  63  63 100 N15       29.79R FOG
$$

TXZ229>234-239>247-171700-
TEXAS COASTAL BEND AND RIO GRANDE PLAINS

CITY           SKY/WX    TMP DP  RH WIND       PRES   REMARKS
VICTORIA       CLOUDY    61  58  90 N10       29.79R
*BEEVILLE      CLOUDY    66  55  69 N14G21    29.79R
ROCKPORT       LGT RAIN  61  61 100 N13       29.79R FOG
*PORT ARANSAS  CLOUDY    62  62  99 N12       29.79R FOG
*PORT LAVACA   CLOUDY    62  61  97 N8        29.80R
*INGLESIDE     CLOUDY    63  61  94 NE17      29.79R FOG
CORPUS CHRISTI LGT RAIN  64  62  93 N9        29.78R FOG
CORPUS NAS     LGT RAIN  64  63  96 N10       29.78R FOG
*ROBSTOWN      NOT AVBL
ALICE          CLOUDY    65  62  90 N12       29.79R
KINGSVILLE NAS CLOUDY    65  62  90 N12       29.79R
COTULLA        CLOUDY    65  49  56 N14G21    29.86R
LAREDO         CLOUDY    65  63  93 NW12      29.84R
$$

TXZ248>255-171700-
DEEP SOUTH TEXAS

CITY           SKY/WX    TMP DP  RH WIND       PRES   REMARKS
BROWNSVILLE    CLOUDY    74  73  97 W6        29.74R
PORT ISABEL    CLOUDY    71  69  93 VRB5      29.73R FOG
HARLINGEN      CLOUDY    73  71  93 N6        29.74R
*HEBBRONVILLE  CLOUDY    62  61  99 CALM      29.82R
MCALLEN        CLOUDY    76  71  85 N10       29.76R HAZE
*WESLACO       CLOUDY    71  69  92 N8        29.75  FOG
FALFURRIAS     CLOUDY    64  61  91 N9        29.79R
EDINBURG       CLOUDY    71  68  89 N17G24    29.77R FOG
*ZAPATA        CLOUDY    64  63  97 N8        29.84R
$$

TXZ213>215-236>238-242>244-246-247-251-254-255-171700-
CMAN STATIONS

STATION/POSITION TIME  TEMP    WIND        PRES    WAVE
                       AIR SEA DIR/SP/G            HT/PER
                 (UTC) (F)     (DEG/KT/KT) (MB)    (FT/S)
SABINE PASS      1542   68 64   CALM  /  2 1009.9
SEA RIM ST PARK  1500   68      CALM  /  2 1008.0
NORTH JETTY/GLS  1542   66 60  360/ 11/ 13 1007.4
EAGLE POINT      1542   64 63   10/  8/ 10 1008.2
MORGANS POINT    1542   64 61  340/  8/ 13 1008.4
PORT O`CONNOR    1542   61 62  340/ 13/ 14 1008.1
PORT ARANSAS     1500   60 61  350/ 12/ 15 1007.4
MALAQUITE BEACH  1542   62 62  340/ 11/ 18 1007.7
BAFFIN BAY       1542   63 67  340/ 17/ 20 1008.4
PORT ISABEL      1542   66 63  100/  6/  7 1006.3
$$



USA.gov is the U.S. government's official web portal to all federal, state and local government web resources and services.